Tracking 35274 objects as of 10-Sep-2026
HD Live streaming from Space Station
objects crossing your sky now

STARLINK-30533

Track STARLINK-30533 now!
10-day predictions
STARLINK-30533 is classified as:


NORAD ID: 58037
Int'l Code: 2023-156K
Launch date: October 9, 2023
Source: United States (US)
Launch site: AIR FORCE WESTERN TEST RANGE (AFWTR)
Your satellite tracking list
Your tracking list is empty




NASA's NSSDC Master Catalog

Two Line Element Set (TLE):
1 58037U 23156K   26252.65982002  .00004216  00000-0  13587-3 0  9999
2 58037  53.1601  30.5091 0001334 112.3359 247.7786 15.34390424163246
Source of the keplerian elements: AFSPC